,,,PA_Meas_PMT16A,,PR_Meas_QMR101_102,,RH_Meas_QMH101,,SR_Meas_QMS101,,TA_Meas_QMH101,,GenWind,,GenWind,
date,time,status,PA,status,PR,status,RH,status,SR,status,TA,status,DirAvg,status,SpdAvg,
2009-01-13, 00:00:05,VALID,1013.44,VALID,0,VALID,91.7531,VALID,0,VALID,23.3628,VALID,323,VALID,0.207031,
2009-01-13, 00:01:05,VALID,1013.4,VALID,0,VALID,91.8903,VALID,0,VALID,23.3238,VALID,8,VALID,0.189063,
2009-01-13, 00:02:05,VALID,1013.39,VALID,0,VALID,91.9208,VALID,0,VALID,23.2831,VALID,8,VALID,0.0945313,
2009-01-13, 00:03:05,VALID,1013.35,VALID,0,VALID,91.9208,VALID,0,VALID,23.3043,VALID,8,VALID,0,
2009-01-13, 00:04:05,VALID,1013.33,VALID,0,VALID,91.9361,VALID,0,VALID,23.2848,VALID,11,VALID,0.084375,
2009-01-13, 00:05:05,VALID,1013.3,VALID,0,VALID,91.9818,VALID,0,VALID,23.2848,VALID,17,VALID,0.469141,
2009-01-13, 00:06:05,VALID,1013.29,VALID,0,VALID,91.9666,VALID,0,VALID,23.2848,VALID,16,VALID,0.375781,
2009-01-13, 00:07:05,VALID,1013.26,VALID,0,VALID,91.9895,VALID,0,VALID,23.2441,VALID,16,VALID,0.246484,
2009-01-13, 00:08:05,VALID,1013.25,VALID,0,VALID,92.0428,VALID,0,VALID,23.2654,VALID,25,VALID,0.477344,
2009-01-13, 00:09:05,VALID,1013.21,VALID,0,VALID,92.0352,VALID,0,VALID,23.2654,VALID,30,VALID,0.0449219,
2009-01-13, 00:10:05,VALID,1013.19,VALID,0,VALID,92.0047,VALID,0,VALID,23.2264,VALID,30,VALID,0,
2009-01-13, 00:11:05,VALID,1013.19,VALID,0,VALID,92.0352,VALID,0,VALID,23.2264,VALID,30,VALID,0.189063,
2009-01-13, 00:12:05,VALID,1013.16,VALID,0,VALID,92.142,VALID,0,VALID,23.2069,VALID,30,VALID,0.299609,
2009-01-13, 00:13:05,VALID,1013.18,VALID,0,VALID,92.3097,VALID,0,VALID,23.1679,VALID,30,VALID,0,
2009-01-13, 00:14:05,VALID,1013.18,VALID,0,VALID,92.4013,VALID,0,VALID,23.129,VALID,30,VALID,0,
2009-01-13, 00:15:05,VALID,1013.18,VALID,0,VALID,92.5233,VALID,0,VALID,23.1095,VALID,30,VALID,0,
2009-01-13, 00:16:05,VALID,1013.16,VALID,0,VALID,92.6224,VALID,0,VALID,23.09,VALID,30,VALID,0,
2009-01-13, 00:17:05,VALID,1013.11,VALID,0,VALID,92.7215,VALID,0,VALID,23.0705,VALID,30,VALID,0,
2009-01-13, 00:18:05,VALID,1013.13,VALID,0,VALID,92.8741,VALID,0,VALID,23.0316,VALID,30,VALID,0,
2009-01-13, 00:19:05,VALID,1013.08,VALID,0,VALID,92.9656,VALID,0,VALID,23.0103,VALID,30,VALID,0,
2009-01-13, 00:20:05,VALID,1013.06,VALID,0,VALID,93.0418,VALID,0,VALID,23.0121,VALID,30,VALID,0,
2009-01-13, 00:21:05,VALID,1013.01,VALID,0,VALID,93.1333,VALID,0,VALID,22.9926,VALID,30,VALID,0,
2009-01-13, 00:22:05,VALID,1013.01,VALID,0,VALID,93.2172,VALID,0,VALID,22.9731,VALID,30,VALID,0,
2009-01-13, 00:23:05,VALID,1013,VALID,0,VALID,93.3087,VALID,0,VALID,22.9536,VALID,30,VALID,0,
2009-01-13, 00:24:05,VALID,1012.96,VALID,0,VALID,93.3773,VALID,0,VALID,22.9342,VALID,30,VALID,0,
2009-01-13, 00:25:05,VALID,1012.93,VALID,0,VALID,93.4689,VALID,0,VALID,22.9342,VALID,30,VALID,0,
2009-01-13, 00:26:05,VALID,1012.9,VALID,0,VALID,93.5604,VALID,0.105969,VALID,22.8935,VALID,30,VALID,0,
2009-01-13, 00:27:05,VALID,1012.92,VALID,0,VALID,93.629,VALID,0,VALID,22.8935,VALID,30,VALID,0,
2009-01-13, 00:28:05,VALID,1012.92,VALID,0,VALID,93.69,VALID,0,VALID,22.8952,VALID,30,VALID,0,
2009-01-13, 00:29:05,VALID,1012.89,VALID,0,VALID,93.7358,VALID,0,VALID,22.8757,VALID,30,VALID,0,
2009-01-13, 00:30:05,VALID,1012.87,VALID,0,VALID,93.7815,VALID,0,VALID,22.835,VALID,30,VALID,0,
2009-01-13, 00:31:05,VALID,1012.88,VALID,0,VALID,93.8196,VALID,0.105969,VALID,22.8545,VALID,30,VALID,0,
2009-01-13, 00:32:05,VALID,1012.88,VALID,0,VALID,93.8807,VALID,0,VALID,22.8368,VALID,30,VALID,0,
2009-01-13, 00:33:05,VALID,1012.85,VALID,0,VALID,93.934,VALID,0,VALID,22.8155,VALID,30,VALID,0,
2009-01-13, 00:34:05,VALID,1012.86,VALID,0,VALID,93.9874,VALID,0.105969,VALID,22.8155,VALID,30,VALID,0,
2009-01-13, 00:35:05,VALID,1012.88,VALID,0,VALID,94.0408,VALID,0,VALID,22.7978,VALID,30,VALID,0,
2009-01-13, 00:36:05,VALID,1012.88,VALID,0,VALID,94.056,VALID,0,VALID,22.7766,VALID,30,VALID,0,
2009-01-13, 00:37:05,VALID,1012.88,VALID,0,VALID,94.1018,VALID,0,VALID,22.7978,VALID,30,VALID,0,
2009-01-13, 00:38:05,VALID,1012.91,VALID,0,VALID,94.1399,VALID,0,VALID,22.7783,VALID,30,VALID,0,
2009-01-13, 00:39:05,VALID,1012.92,VALID,0,VALID,94.1781,VALID,0,VALID,22.7588,VALID,30,VALID,0,
2009-01-13, 00:40:05,VALID,1012.96,VALID,0,VALID,94.2086,VALID,0,VALID,22.7783,VALID,30,VALID,0,
2009-01-13, 00:41:05,VALID,1012.97,VALID,0,VALID,94.2543,VALID,0,VALID,22.7783,VALID,30,VALID,0,
2009-01-13, 00:42:05,VALID,1012.97,VALID,0,VALID,94.3077,VALID,0,VALID,22.7783,VALID,30,VALID,0,
2009-01-13, 00:43:05,VALID,1012.97,VALID,0,VALID,94.3458,VALID,0,VALID,22.7376,VALID,30,VALID,0,
2009-01-13, 00:44:05,VALID,1012.91,VALID,0,VALID,94.3458,VALID,0.105969,VALID,22.7394,VALID,30,VALID,0,
2009-01-13, 00:45:05,VALID,1012.9,VALID,0,VALID,94.3458,VALID,0,VALID,22.7394,VALID,30,VALID,0,
2009-01-13, 00:46:05,VALID,1012.86,VALID,0,VALID,94.3611,VALID,0,VALID,22.7199,VALID,30,VALID,0,
2009-01-13, 00:47:05,VALID,1012.82,VALID,0,VALID,94.3458,VALID,0,VALID,22.7199,VALID,30,VALID,0,
2009-01-13, 00:48:05,VALID,1012.81,VALID,0,VALID,94.3611,VALID,0,VALID,22.7199,VALID,30,VALID,0,
2009-01-13, 00:49:05,VALID,1012.83,VALID,0,VALID,94.3687,VALID,0,VALID,22.7004,VALID,30,VALID,0,
2009-01-13, 00:50:05,VALID,1012.84,VALID,0,VALID,94.4068,VALID,0,VALID,22.7004,VALID,30,VALID,0,
2009-01-13, 00:51:05,VALID,1012.8,VALID,0,VALID,94.4145,VALID,0,VALID,22.7004,VALID,30,VALID,0,
2009-01-13, 00:52:05,VALID,1012.78,VALID,0,VALID,94.4526,VALID,0,VALID,22.6809,VALID,30,VALID,0,
2009-01-13, 00:53:05,VALID,1012.73,VALID,0,VALID,94.4526,VALID,0,VALID,22.6809,VALID,30,VALID,0,
2009-01-13, 00:54:05,VALID,1012.71,VALID,0,VALID,94.4602,VALID,0,VALID,22.7021,VALID,30,VALID,0,
2009-01-13, 00:55:05,VALID,1012.7,VALID,0,VALID,94.4907,VALID,0,VALID,22.6809,VALID,30,VALID,0,
2009-01-13, 00:56:05,VALID,1012.67,VALID,0,VALID,94.5212,VALID,0,VALID,22.6809,VALID,30,VALID,0,
2009-01-13, 00:57:05,VALID,1012.66,VALID,0,VALID,94.5441,VALID,0,VALID,22.6402,VALID,30,VALID,0,
2009-01-13, 00:58:05,VALID,1012.63,VALID,0,VALID,94.5746,VALID,0,VALID,22.7004,VALID,30,VALID,0,
2009-01-13, 00:59:05,VALID,1012.6,VALID,0,VALID,94.567,VALID,0,VALID,22.6614,VALID,30,VALID,0,
2009-01-13, 01:00:05,VALID,1012.59,VALID,0,VALID,94.5746,VALID,0,VALID,22.6614,VALID,30,VALID,0,
2009-01-13, 01:01:05,VALID,1012.6,VALID,0,VALID,94.5898,VALID,0,VALID,22.642,VALID,30,VALID,0,
2009-01-13, 01:02:05,VALID,1012.59,VALID,0,VALID,94.6127,VALID,0,VALID,22.642,VALID,30,VALID,0,
2009-01-13, 01:03:05,VALID,1012.58,VALID,0,VALID,94.6051,VALID,0,VALID,22.6225,VALID,30,VALID,0,
2009-01-13, 01:04:05,VALID,1012.55,VALID,0,VALID,94.6051,VALID,0,VALID,22.603,VALID,30,VALID,0,
2009-01-13, 01:05:05,VALID,1012.57,VALID,0,VALID,94.5975,VALID,0,VALID,22.5835,VALID,30,VALID,0,
2009-01-13, 01:06:05,VALID,1012.54,VALID,0,VALID,94.6127,VALID,0,VALID,22.5835,VALID,30,VALID,0,
2009-01-13, 01:07:05,VALID,1012.58,VALID,0,VALID,94.628,VALID,0,VALID,22.603,VALID,30,VALID,0,
2009-01-13, 01:08:05,VALID,1012.56,VALID,0,VALID,94.6585,VALID,0,VALID,22.5835,VALID,30,VALID,0,
2009-01-13, 01:09:05,VALID,1012.51,VALID,0,VALID,94.689,VALID,0,VALID,22.564,VALID,30,VALID,0,
2009-01-13, 01:10:05,VALID,1012.49,VALID,0,VALID,94.7347,VALID,0,VALID,22.5835,VALID,30,VALID,0,
2009-01-13, 01:11:05,VALID,1012.44,VALID,0,VALID,94.75,VALID,0,VALID,22.5835,VALID,30,VALID,0,
2009-01-13, 01:12:05,VALID,1012.39,VALID,0,VALID,94.7729,VALID,0,VALID,22.564,VALID,30,VALID,0,
2009-01-13, 01:13:05,VALID,1012.38,VALID,0,VALID,94.7805,VALID,0,VALID,22.5446,VALID,30,VALID,0,
2009-01-13, 01:14:05,VALID,1012.39,VALID,0,VALID,94.7881,VALID,0,VALID,22.5446,VALID,30,VALID,0,
2009-01-13, 01:15:05,VALID,1012.39,VALID,0,VALID,94.8262,VALID,0,VALID,22.5234,VALID,30,VALID,0,
2009-01-13, 01:16:05,VALID,1012.38,VALID,0,VALID,94.8415,VALID,0,VALID,22.5446,VALID,30,VALID,0,
2009-01-13, 01:17:05,VALID,1012.36,VALID,0,VALID,94.8568,VALID,0.105969,VALID,22.5429,VALID,30,VALID,0,
2009-01-13, 01:18:05,VALID,1012.34,VALID,0,VALID,94.8949,VALID,0,VALID,22.5429,VALID,30,VALID,0,
2009-01-13, 01:19:05,VALID,1012.32,VALID,0,VALID,94.8949,VALID,0,VALID,22.5446,VALID,30,VALID,0,
2009-01-13, 01:20:05,VALID,1012.32,VALID,0,VALID,94.9101,VALID,0,VALID,22.5234,VALID,30,VALID,0,
2009-01-13, 01:21:05,VALID,1012.32,VALID,0,VALID,94.9178,VALID,0,VALID,22.5251,VALID,30,VALID,0,
2009-01-13, 01:22:05,VALID,1012.29,VALID,0,VALID,94.9483,VALID,0,VALID,22.5251,VALID,30,VALID,0,
2009-01-13, 01:23:05,VALID,1012.27,VALID,0,VALID,94.9406,VALID,0,VALID,22.5056,VALID,30,VALID,0,
2009-01-13, 01:24:05,VALID,1012.27,VALID,0,VALID,94.9406,VALID,0,VALID,22.4667,VALID,30,VALID,0,
2009-01-13, 01:25:05,VALID,1012.25,VALID,0,VALID,94.9559,VALID,0,VALID,22.426,VALID,30,VALID,0,
2009-01-13, 01:26:04,VALID,1012.19,VALID,0,VALID,94.9483,VALID,0,VALID,22.4472,VALID,30,VALID,0,
2009-01-13, 01:27:04,VALID,1012.2,VALID,0,VALID,94.9406,VALID,0,VALID,22.426,VALID,30,VALID,0,
2009-01-13, 01:28:04,VALID,1012.2,VALID,0,VALID,94.9483,VALID,0,VALID,22.4277,VALID,30,VALID,0,
2009-01-13, 01:29:04,VALID,1012.2,VALID,0,VALID,94.9635,VALID,0,VALID,22.4065,VALID,30,VALID,0,
2009-01-13, 01:30:04,VALID,1012.21,VALID,0,VALID,94.9864,VALID,0,VALID,22.4277,VALID,30,VALID,0,
2009-01-13, 01:31:04,VALID,1012.18,VALID,0,VALID,94.9711,VALID,0,VALID,22.4082,VALID,30,VALID,0,
2009-01-13, 01:32:04,VALID,1012.18,VALID,0,VALID,94.994,VALID,0,VALID,22.387,VALID,30,VALID,0,
2009-01-13, 01:33:04,VALID,1012.21,VALID,0,VALID,94.9864,VALID,0,VALID,22.4082,VALID,30,VALID,0,
2009-01-13, 01:34:04,VALID,1012.18,VALID,0,VALID,95.0093,VALID,0,VALID,22.4065,VALID,30,VALID,0,
2009-01-13, 01:35:04,VALID,1012.16,VALID,0,VALID,95.0321,VALID,0,VALID,22.4277,VALID,30,VALID,0,
2009-01-13, 01:36:04,VALID,1012.13,VALID,0,VALID,95.0779,VALID,0,VALID,22.4277,VALID,30,VALID,0,
2009-01-13, 01:37:04,VALID,1012.11,VALID,0,VALID,95.0779,VALID,0,VALID,22.4667,VALID,30,VALID,0,
2009-01-13, 01:38:04,VALID,1012.1,VALID,0,VALID,95.1084,VALID,0,VALID,22.4667,VALID,30,VALID,0,
2009-01-13, 01:39:04,VALID,1012.06,VALID,0,VALID,95.1313,VALID,0,VALID,22.4684,VALID,30,VALID,0,
2009-01-13, 01:40:04,VALID,1012.03,VALID,0,VALID,95.1236,VALID,0,VALID,22.4667,VALID,30,VALID,0,
2009-01-13, 01:41:04,VALID,1012.03,VALID,0,VALID,95.1465,VALID,0,VALID,22.4455,VALID,30,VALID,0,
2009-01-13, 01:42:04,VALID,1012.05,VALID,0,VALID,95.1542,VALID,0,VALID,22.4861,VALID,30,VALID,0,
2009-01-13, 01:43:04,VALID,1012.06,VALID,0,VALID,95.1618,VALID,0.105969,VALID,22.5056,VALID,30,VALID,0,
2009-01-13, 01:44:04,VALID,1012.09,VALID,0,VALID,95.1694,VALID,0,VALID,22.5056,VALID,30,VALID,0,
2009-01-13, 01:45:04,VALID,1012.11,VALID,0,VALID,95.1999,VALID,0,VALID,22.465,VALID,30,VALID,0,
2009-01-13, 01:46:04,VALID,1012.1,VALID,0,VALID,95.1465,VALID,0,VALID,22.5056,VALID,30,VALID,0,
2009-01-13, 01:47:04,VALID,1012.09,VALID,0,VALID,95.1694,VALID,0,VALID,22.465,VALID,30,VALID,0,
2009-01-13, 01:48:04,VALID,1012.1,VALID,0,VALID,95.1542,VALID,0,VALID,22.4844,VALID,30,VALID,0,
2009-01-13, 01:49:04,VALID,1012.11,VALID,0,VALID,95.1847,VALID,0,VALID,22.5056,VALID,30,VALID,0,
2009-01-13, 01:50:04,VALID,1012.12,VALID,0,VALID,95.177,VALID,0,VALID,22.5251,VALID,29,VALID,0,
2009-01-13, 01:51:04,VALID,1012.18,VALID,0,VALID,95.177,VALID,0,VALID,22.5234,VALID,29,VALID,0,
2009-01-13, 01:52:04,VALID,1012.21,VALID,0,VALID,95.1618,VALID,0,VALID,22.5234,VALID,29,VALID,0,
2009-01-13, 01:53:04,VALID,1012.22,VALID,0,VALID,95.1847,VALID,0,VALID,22.5429,VALID,29,VALID,0,
2009-01-13, 01:54:04,VALID,1012.23,VALID,0,VALID,95.1465,VALID,0,VALID,22.5234,VALID,29,VALID,0,
2009-01-13, 01:55:04,VALID,1012.2,VALID,0,VALID,95.1236,VALID,0,VALID,22.5429,VALID,29,VALID,0,
2009-01-13, 01:56:04,VALID,1012.19,VALID,0,VALID,95.1008,VALID,0,VALID,22.5429,VALID,29,VALID,0,
2009-01-13, 01:57:04,VALID,1012.15,VALID,0,VALID,95.0931,VALID,0,VALID,22.564,VALID,29,VALID,0,
2009-01-13, 01:58:04,VALID,1012.18,VALID,0,VALID,95.0398,VALID,0,VALID,22.5234,VALID,29,VALID,0,
2009-01-13, 01:59:04,VALID,1012.2,VALID,0,VALID,95.0245,VALID,0,VALID,22.5234,VALID,29,VALID,0,
2009-01-13, 02:00:04,VALID,1012.24,VALID,0,VALID,94.994,VALID,0.105969,VALID,22.5446,VALID,29,VALID,0,
2009-01-13, 02:01:04,VALID,1012.24,VALID,0,VALID,95.0016,VALID,0,VALID,22.5446,VALID,29,VALID,0,
2009-01-13, 02:02:04,VALID,1012.27,VALID,0,VALID,94.994,VALID,0,VALID,22.5446,VALID,29,VALID,0,
2009-01-13, 02:03:04,VALID,1012.23,VALID,0,VALID,95.0245,VALID,0,VALID,22.5234,VALID,29,VALID,0,
2009-01-13, 02:04:04,VALID,1012.24,VALID,0,VALID,95.0169,VALID,0,VALID,22.5234,VALID,29,VALID,0,
2009-01-13, 02:05:04,VALID,1012.22,VALID,0,VALID,95.0169,VALID,0.105969,VALID,22.5429,VALID,29,VALID,0,
2009-01-13, 02:06:04,VALID,1012.2,VALID,0,VALID,94.9788,VALID,0,VALID,22.5446,VALID,29,VALID,0,
2009-01-13, 02:07:04,VALID,1012.22,VALID,0,VALID,94.994,VALID,0,VALID,22.5234,VALID,29,VALID,0,
2009-01-13, 02:08:04,VALID,1012.19,VALID,0,VALID,94.9864,VALID,0,VALID,22.5446,VALID,29,VALID,0,
2009-01-13, 02:09:04,VALID,1012.19,VALID,0,VALID,94.9864,VALID,0,VALID,22.5039,VALID,29,VALID,0,
2009-01-13, 02:10:04,VALID,1012.2,VALID,0,VALID,95.0093,VALID,0,VALID,22.5446,VALID,29,VALID,0,
2009-01-13, 02:11:04,VALID,1012.2,VALID,0,VALID,95.0016,VALID,0,VALID,22.5234,VALID,29,VALID,0,
2009-01-13, 02:12:04,VALID,1012.2,VALID,0,VALID,95.0245,VALID,0,VALID,22.5234,VALID,29,VALID,0,
2009-01-13, 02:13:04,VALID,1012.17,VALID,0,VALID,95.0245,VALID,0,VALID,22.564,VALID,29,VALID,0,
2009-01-13, 02:14:04,VALID,1012.19,VALID,0,VALID,95.0626,VALID,0,VALID,22.564,VALID,29,VALID,0,
2009-01-13, 02:15:04,VALID,1012.18,VALID,0,VALID,95.0398,VALID,0,VALID,22.564,VALID,29,VALID,0,
2009-01-13, 02:16:04,VALID,1012.19,VALID,0,VALID,95.0398,VALID,0,VALID,22.5835,VALID,29,VALID,0,
2009-01-13, 02:17:04,VALID,1012.19,VALID,0,VALID,95.0321,VALID,0,VALID,22.5623,VALID,29,VALID,0,
2009-01-13, 02:18:04,VALID,1012.18,VALID,0,VALID,95.0398,VALID,0,VALID,22.5623,VALID,29,VALID,0,
2009-01-13, 02:19:04,VALID,1012.18,VALID,0,VALID,95.0016,VALID,0,VALID,22.5429,VALID,29,VALID,0,
2009-01-13, 02:20:04,VALID,1012.19,VALID,0,VALID,95.0016,VALID,0,VALID,22.5623,VALID,29,VALID,0,
2009-01-13, 02:21:04,VALID,1012.18,VALID,0,VALID,94.9788,VALID,0,VALID,22.564,VALID,29,VALID,0,
2009-01-13, 02:22:04,VALID,1012.19,VALID,0,VALID,94.9635,VALID,0,VALID,22.5234,VALID,29,VALID,0,
2009-01-13, 02:23:04,VALID,1012.17,VALID,0,VALID,94.9406,VALID,0,VALID,22.5234,VALID,29,VALID,0,
2009-01-13, 02:24:04,VALID,1012.14,VALID,0,VALID,94.9483,VALID,0,VALID,22.5251,VALID,29,VALID,0,
2009-01-13, 02:25:04,VALID,1012.12,VALID,0,VALID,94.9559,VALID,0,VALID,22.5446,VALID,29,VALID,0,
2009-01-13, 02:26:04,VALID,1012.12,VALID,0,VALID,94.933,VALID,0,VALID,22.5234,VALID,29,VALID,0,
2009-01-13, 02:27:04,VALID,1012.13,VALID,0,VALID,94.9178,VALID,0,VALID,22.5056,VALID,29,VALID,0,
2009-01-13, 02:28:04,VALID,1012.11,VALID,0,VALID,94.8949,VALID,0,VALID,22.5251,VALID,29,VALID,0,
2009-01-13, 02:29:04,VALID,1012.09,VALID,0,VALID,94.9178,VALID,0,VALID,22.5056,VALID,29,VALID,0,
2009-01-13, 02:30:04,VALID,1012.05,VALID,0,VALID,94.9101,VALID,0,VALID,22.5056,VALID,29,VALID,0,
2009-01-13, 02:31:04,VALID,1012.03,VALID,0,VALID,94.8949,VALID,0,VALID,22.4844,VALID,29,VALID,0,
2009-01-13, 02:32:04,VALID,1012,VALID,0,VALID,94.9025,VALID,0.105969,VALID,22.5056,VALID,29,VALID,0,
2009-01-13, 02:33:04,VALID,1011.96,VALID,0,VALID,94.8949,VALID,0,VALID,22.465,VALID,29,VALID,0,
2009-01-13, 02:34:04,VALID,1011.94,VALID,0,VALID,94.9178,VALID,0,VALID,22.4844,VALID,29,VALID,0,
2009-01-13, 02:35:04,VALID,1011.94,VALID,0,VALID,94.9406,VALID,0.105969,VALID,22.4844,VALID,29,VALID,0,
2009-01-13, 02:36:04,VALID,1011.93,VALID,0,VALID,94.9711,VALID,0,VALID,22.5039,VALID,29,VALID,0,
2009-01-13, 02:37:04,VALID,1011.92,VALID,0,VALID,94.9788,VALID,0,VALID,22.5039,VALID,29,VALID,0,
2009-01-13, 02:38:04,VALID,1011.9,VALID,0,VALID,94.994,VALID,0,VALID,22.5251,VALID,29,VALID,0,
2009-01-13, 02:39:04,VALID,1011.86,VALID,0,VALID,95.0016,VALID,0,VALID,22.4844,VALID,29,VALID,0,
2009-01-13, 02:40:04,VALID,1011.85,VALID,0,VALID,94.994,VALID,0,VALID,22.4861,VALID,29,VALID,0,
2009-01-13, 02:41:04,VALID,1011.83,VALID,0,VALID,95.0093,VALID,0,VALID,22.465,VALID,29,VALID,0,
2009-01-13, 02:42:04,VALID,1011.81,VALID,0,VALID,95.0169,VALID,0.105969,VALID,22.4861,VALID,29,VALID,0,
2009-01-13, 02:43:04,VALID,1011.81,VALID,0,VALID,95.0169,VALID,0,VALID,22.4667,VALID,29,VALID,0,
2009-01-13, 02:44:04,VALID,1011.83,VALID,0,VALID,95.0245,VALID,0,VALID,22.4861,VALID,29,VALID,0,
2009-01-13, 02:45:04,VALID,1011.83,VALID,0,VALID,95.0093,VALID,0,VALID,22.4667,VALID,29,VALID,0.0328125,
2009-01-13, 02:46:04,VALID,1011.8,VALID,0,VALID,94.994,VALID,0,VALID,22.426,VALID,29,VALID,0.45,
2009-01-13, 02:47:04,VALID,1011.78,VALID,0,VALID,94.9711,VALID,0,VALID,22.4277,VALID,30,VALID,0.465625,
2009-01-13, 02:48:04,VALID,1011.76,VALID,0,VALID,94.994,VALID,0,VALID,22.4277,VALID,30,VALID,0.455859,
2009-01-13, 02:49:04,VALID,1011.75,VALID,0,VALID,94.994,VALID,0,VALID,22.4667,VALID,30,VALID,0.245703,
2009-01-13, 02:50:04,VALID,1011.74,VALID,0,VALID,95.0093,VALID,0,VALID,22.4667,VALID,30,VALID,0.116406,
2009-01-13, 02:51:04,VALID,1011.74,VALID,0,VALID,94.9864,VALID,0,VALID,22.4667,VALID,30,VALID,0.263672,
2009-01-13, 02:52:04,VALID,1011.74,VALID,0,VALID,95.0016,VALID,0.105969,VALID,22.4861,VALID,29,VALID,0.112109,
2009-01-13, 02:53:04,VALID,1011.7,VALID,0,VALID,94.9788,VALID,0,VALID,22.5056,VALID,29,VALID,0.223438,
2009-01-13, 02:54:04,VALID,1011.69,VALID,0,VALID,94.9635,VALID,0,VALID,22.4667,VALID,29,VALID,0.378906,
2009-01-13, 02:55:04,VALID,1011.68,VALID,0,VALID,94.9101,VALID,0,VALID,22.4277,VALID,29,VALID,0.428516,
2009-01-13, 02:56:04,VALID,1011.66,VALID,0,VALID,94.8873,VALID,0,VALID,22.4082,VALID,30,VALID,0.403516,
2009-01-13, 02:57:04,VALID,1011.63,VALID,0,VALID,94.8262,VALID,0,VALID,22.3693,VALID,30,VALID,0.2375,
2009-01-13, 02:58:04,VALID,1011.61,VALID,0,VALID,94.811,VALID,0,VALID,22.3693,VALID,29,VALID,0.310156,
2009-01-13, 02:59:04,VALID,1011.6,VALID,0,VALID,94.7881,VALID,0,VALID,22.3303,VALID,30,VALID,0.423828,
2009-01-13, 03:00:04,VALID,1011.58,VALID,0,VALID,94.8034,VALID,0,VALID,22.3303,VALID,30,VALID,0.297266,
2009-01-13, 03:01:04,VALID,1011.55,VALID,0,VALID,94.8262,VALID,0,VALID,22.3303,VALID,31,VALID,0.322656,
2009-01-13, 03:02:04,VALID,1011.55,VALID,0,VALID,94.8186,VALID,0,VALID,22.3108,VALID,31,VALID,0.071875,
2009-01-13, 03:03:04,VALID,1011.52,VALID,0,VALID,94.8262,VALID,0,VALID,22.2914,VALID,31,VALID,0.107031,
2009-01-13, 03:04:04,VALID,1011.53,VALID,0,VALID,94.8415,VALID,0,VALID,22.2719,VALID,31,VALID,0,
2009-01-13, 03:05:04,VALID,1011.51,VALID,0,VALID,94.8491,VALID,0,VALID,22.2719,VALID,31,VALID,0,
2009-01-13, 03:06:04,VALID,1011.5,VALID,0,VALID,94.8491,VALID,0,VALID,22.2312,VALID,31,VALID,0,
2009-01-13, 03:07:04,VALID,1011.46,VALID,0,VALID,94.8644,VALID,0,VALID,22.2524,VALID,31,VALID,0,
2009-01-13, 03:08:04,VALID,1011.48,VALID,0,VALID,94.872,VALID,0,VALID,22.2329,VALID,31,VALID,0,
2009-01-13, 03:09:04,VALID,1011.5,VALID,0,VALID,94.9254,VALID,0,VALID,22.2329,VALID,31,VALID,0.025,
2009-01-13, 03:10:04,VALID,1011.48,VALID,0,VALID,94.9406,VALID,0,VALID,22.2329,VALID,31,VALID,0,
2009-01-13, 03:11:04,VALID,1011.47,VALID,0,VALID,94.9711,VALID,0,VALID,22.2134,VALID,31,VALID,0,
2009-01-13, 03:12:04,VALID,1011.48,VALID,0,VALID,94.9864,VALID,0,VALID,22.194,VALID,31,VALID,0,
2009-01-13, 03:13:04,VALID,1011.5,VALID,0,VALID,95.0093,VALID,0,VALID,22.1923,VALID,31,VALID,0,
2009-01-13, 03:14:04,VALID,1011.56,VALID,0,VALID,95.0245,VALID,0,VALID,22.194,VALID,31,VALID,0,
2009-01-13, 03:15:04,VALID,1011.58,VALID,0,VALID,95.055,VALID,0,VALID,22.194,VALID,31,VALID,0,
2009-01-13, 03:16:04,VALID,1011.64,VALID,0,VALID,95.0779,VALID,0,VALID,22.194,VALID,31,VALID,0,
2009-01-13, 03:17:04,VALID,1011.64,VALID,0,VALID,95.0931,VALID,0,VALID,22.2134,VALID,31,VALID,0,
2009-01-13, 03:18:04,VALID,1011.64,VALID,0,VALID,95.116,VALID,0,VALID,22.2134,VALID,31,VALID,0,
2009-01-13, 03:19:04,VALID,1011.64,VALID,0,VALID,95.1236,VALID,0,VALID,22.2134,VALID,18,VALID,0,
2009-01-13, 03:20:04,VALID,1011.64,VALID,0,VALID,95.177,VALID,0,VALID,22.2507,VALID,311,VALID,0.0609375,
2009-01-13, 03:21:04,VALID,1011.65,VALID,0,VALID,95.2304,VALID,0.105969,VALID,22.2524,VALID,310,VALID,0,
2009-01-13, 03:22:04,VALID,1011.66,VALID,0,VALID,95.2457,VALID,0,VALID,22.2914,VALID,310,VALID,0,
2009-01-13, 03:23:04,VALID,1011.68,VALID,0,VALID,95.2457,VALID,0,VALID,22.2719,VALID,310,VALID,0,
2009-01-13, 03:24:04,VALID,1011.7,VALID,0,VALID,95.238,VALID,0,VALID,22.2719,VALID,310,VALID,0,
2009-01-13, 03:25:04,VALID,1011.72,VALID,0,VALID,95.2533,VALID,0,VALID,22.2524,VALID,310,VALID,0,
2009-01-13, 03:26:04,VALID,1011.74,VALID,0,VALID,95.2838,VALID,0,VALID,22.2524,VALID,310,VALID,0,
2009-01-13, 03:27:04,VALID,1011.74,VALID,0,VALID,95.2609,VALID,0,VALID,22.2524,VALID,310,VALID,0,
2009-01-13, 03:28:04,VALID,1011.76,VALID,0,VALID,95.2609,VALID,0,VALID,22.2524,VALID,310,VALID,0,
2009-01-13, 03:29:04,VALID,1011.76,VALID,0,VALID,95.2762,VALID,0,VALID,22.2329,VALID,310,VALID,0,
2009-01-13, 03:30:04,VALID,1011.76,VALID,0,VALID,95.2685,VALID,0,VALID,22.2329,VALID,310,VALID,0,
2009-01-13, 03:31:04,VALID,1011.77,VALID,0,VALID,95.2685,VALID,0,VALID,22.2329,VALID,310,VALID,0,
2009-01-13, 03:32:04,VALID,1011.81,VALID,0,VALID,95.2838,VALID,0,VALID,22.2524,VALID,310,VALID,0,
2009-01-13, 03:33:04,VALID,1011.81,VALID,0,VALID,95.2838,VALID,0,VALID,22.2329,VALID,310,VALID,0,
2009-01-13, 03:34:04,VALID,1011.77,VALID,0,VALID,95.2838,VALID,0,VALID,22.2134,VALID,310,VALID,0,
2009-01-13, 03:35:04,VALID,1011.75,VALID,0,VALID,95.2762,VALID,0,VALID,22.2134,VALID,310,VALID,0,
2009-01-13, 03:36:04,VALID,1011.72,VALID,0,VALID,95.2914,VALID,0,VALID,22.1923,VALID,310,VALID,0,
2009-01-13, 03:37:04,VALID,1011.76,VALID,0,VALID,95.3067,VALID,0,VALID,22.194,VALID,310,VALID,0,
2009-01-13, 03:38:04,VALID,1011.75,VALID,0,VALID,95.299,VALID,0,VALID,22.1745,VALID,310,VALID,0,
2009-01-13, 03:39:04,VALID,1011.75,VALID,0,VALID,95.299,VALID,0,VALID,22.1745,VALID,310,VALID,0,
2009-01-13, 03:40:04,VALID,1011.75,VALID,0,VALID,95.2914,VALID,0,VALID,22.1339,VALID,310,VALID,0,
2009-01-13, 03:41:04,VALID,1011.76,VALID,0,VALID,95.3143,VALID,0,VALID,22.155,VALID,310,VALID,0,
2009-01-13, 03:42:04,VALID,1011.74,VALID,0,VALID,95.3143,VALID,0,VALID,22.1355,VALID,310,VALID,0,
2009-01-13, 03:43:04,VALID,1011.72,VALID,0,VALID,95.3067,VALID,0,VALID,22.1339,VALID,310,VALID,0,
2009-01-13, 03:44:04,VALID,1011.7,VALID,0,VALID,95.3143,VALID,0.105969,VALID,22.1144,VALID,310,VALID,0,
2009-01-13, 03:45:04,VALID,1011.74,VALID,0,VALID,95.3295,VALID,0,VALID,22.1339,VALID,310,VALID,0,
2009-01-13, 03:46:04,VALID,1011.74,VALID,0,VALID,95.3295,VALID,0,VALID,22.1339,VALID,310,VALID,0,
2009-01-13, 03:47:04,VALID,1011.74,VALID,0,VALID,95.3753,VALID,0,VALID,22.1355,VALID,310,VALID,0,
2009-01-13, 03:48:04,VALID,1011.73,VALID,0,VALID,95.3524,VALID,0,VALID,22.1144,VALID,310,VALID,0,
2009-01-13, 03:49:04,VALID,1011.74,VALID,0,VALID,95.3448,VALID,0,VALID,22.1161,VALID,310,VALID,0,
2009-01-13, 03:50:04,VALID,1011.76,VALID,0,VALID,95.3677,VALID,0.105969,VALID,22.0949,VALID,310,VALID,0,
2009-01-13, 03:51:04,VALID,1011.77,VALID,0,VALID,95.36,VALID,0.105969,VALID,22.056,VALID,310,VALID,0,
2009-01-13, 03:52:04,VALID,1011.74,VALID,0,VALID,95.36,VALID,0,VALID,22.0754,VALID,310,VALID,0,
2009-01-13, 03:53:04,VALID,1011.72,VALID,0,VALID,95.3677,VALID,0.105969,VALID,22.056,VALID,310,VALID,0,
2009-01-13, 03:54:04,VALID,1011.71,VALID,0,VALID,95.3982,VALID,0,VALID,22.0754,VALID,310,VALID,0,
2009-01-13, 03:55:04,VALID,1011.73,VALID,0,VALID,95.3905,VALID,0.105969,VALID,22.0754,VALID,310,VALID,0,
2009-01-13, 03:56:04,VALID,1011.72,VALID,0,VALID,95.4058,VALID,0.105969,VALID,22.0754,VALID,310,VALID,0,
2009-01-13, 03:57:04,VALID,1011.74,VALID,0,VALID,95.4287,VALID,0,VALID,22.0771,VALID,310,VALID,0,
2009-01-13, 03:58:04,VALID,1011.76,VALID,0,VALID,95.4134,VALID,0.105969,VALID,22.0949,VALID,310,VALID,0,